Location: Eboldshausen
(51.7766°N, 10.0050°E)
Time: 07:01:39
(UTC+00:00)

Cosmos 1300 Rocket - Pass Details

Date: 15 November 2025
Orbit: 594 x 620 km, 82.5° (Epoch: 10 December)

Event Time Altitude Azimuth Distance (km) Brightness Sun altitude
Rises 16:46:28 0° 189° (S) 2,883 7.3 -11.8°
Reaches altitude 10° 16:48:41 10° 190° (S) 1,980 6.5 -12.2°
Maximum altitude 16:53:04 88° 272° (W) 624 3.6 -12.8°
Drops below altitude 10° 16:57:29 10° 10° (N) 1,983 5.9 -13.5°
Sets 16:59:42 0° 11° (N) 2,889 6.8 -13.8°
